Temperature
12 12 12 12 12 12 12 12 12 12 12 12 12 12 11 11 11 10 10 10 9 9 9 9 9 9 9 9 9 9 9 9 9 9 10 10 10 10 10 10 11 11 11
12 12 12 12 12 12 12 12 12 12 11 11 11 11 11 10 10 9 9 9 8 8 8 8 8 9 9 9 9 9 9 9 9 9 9 10 10 10 10 10 10 10 10
13 12 12 12 12 12 12 12 11 11 11 11 10 10 10 9 9 8 8 8 8 8 8 8 8 8 8 8 8 8 8 8 9 9 9 9 9 9 9 10 10 10 10
13 12 12 12 12 12 12 11 11 11 11 10 9 9 9 9 8 7 7 7 7 7 7 7 7 8 8 8 8 8 8 8 8 8 8 8 8 8 8 8 8 9 9
13 12 12 12 12 12 11 11 11 11 10 10 9 9 9 8 7 7 6 6 7 7 7 7 7 7 7 7 7 7 7 7 7 7 7 7 6 6 6 6 6 7 7
13 12 12 12 11 11 11 11 11 10 10 9 9 9 9 8 7 6 6 6 6 6 6 6 6 6 7 7 7 7 7 6 6 6 6 5 5 4 4 4 4 4 4
12 12 12 11 11 11 11 11 10 10 9 9 8 7 7 7 6 6 6 5 5 6 6 6 6 6 6 6 6 6 6 6 6 5 5 4 4 3 2 2 2 2 3
12 11 11 11 11 11 11 10 9 9 8 8 7 6 6 6 5 6 6 6 5 5 5 5 5 5 5 5 5 5 5 5 5 5 4 3 2 1 1 1 1 2 2
11 11 11 11 11 11 10 9 9 8 7 7 6 5 5 6 4 4 4 4 4 4 4 5 5 5 5 4 4 4 4 4 3 3 1 0 -0 -0 0 0 1 1 1
11 11 10 10 10 10 10 9 8 7 6 5 5 5 4 3 2 3 3 2 1 2 2 2 3 4 3 3 2 2 2 1 1 -1 -1 -2 -2 -1 -1 -0 -0 0 1
10 10 10 10 10 9 9 8 7 7 6 5 4 3 2 2 1 0 1 2 1 0 -0 -0 1 1 1 0 -0 -1 -1 -2 -2 -3 -3 -3 -3 -2 -2 -1 -1 -1 -0
10 10 10 10 9 9 8 7 7 6 5 4 4 3 2 1 1 -0 -0 0 -0 -0 -1 -1 -1 -1 -1 -1 -2 -2 -2 -2 -3 -4 -4 -4 -4 -3 -3 -3 -2 -2 -2
10 10 9 9 9 8 7 6 6 5 4 4 3 2 1 1 0 -1 -2 -2 -2 -1 -1 -2 -2 -3 -3 -3 -4 -4 -4 -4 -4 -5 -5 -5 -5 -5 -4 -4 -4 -3 -3
10 9 9 8 8 7 6 6 5 4 3 3 2 2 1 1 -0 -1 -2 -3 -3 -2 -1 -1 -2 -3 -4 -5 -6 -6 -6 -6 -6 -6 -6 -6 -6 -6 -6 -5 -5 -5 -4
9 9 8 8 7 6 5 5 4 3 3 2 2 1 1 0 -0 -1 -2 -4 -4 -4 -3 -3 -3 -4 -5 -6 -6 -7 -7 -7 -7 -7 -7 -7 -7 -7 -6 -6 -6 -6 -5
9 8 7 7 6 5 5 4 3 3 2 2 1 1 -0 -1 -1 -2 -3 -4 -5 -5 -5 -4 -5 -5 -6 -6 -7 -7 -7 -7 -7 -7 -7 -7 -7 -7 -7 -7 -7 -6 -6
8 7 7 6 5 4 4 3 3 2 2 1 0 -0 -1 -1 -2 -3 -4 -5 -5 -6 -6 -5 -6 -6 -7 -7 -7 -7 -7 -7 -7 -7 -7 -7 -8 -8 -7 -7 -7 -7 -7
7 6 6 5 4 3 3 2 2 2 1 0 -0 -1 -2 -2 -3 -4 -5 -6 -6 -7 -7 -7 -7 -7 -7 -7 -7 -7 -7 -7 -7 -8 -8 -8 -8 -8 -8 -8 -7 -7 -7
6 5 5 4 3 3 2 2 1 1 0 -0 -1 -2 -2 -3 -4 -5 -6 -7 -7 -7 -8 -8 -7 -7 -7 -7 -7 -7 -7 -8 -8 -8 -8 -8 -8 -8 -8 -8 -8 -8 -8
5 4 4 3 2 2 1 1 1 0 -1 -1 -2 -2 -3 -4 -5 -7 -7 -8 -8 -8 -8 -8 -8 -7 -7 -7 -7 -8 -8 -8 -8 -8 -8 -8 -8 -8 -8 -8 -8 -8 -8
4 3 3 2 2 1 1 0 -0 -1 -2 -2 -3 -4 -5 -5 -6 -7 -8 -8 -8 -8 -8 -8 -8 -8 -8 -8 -8 -8 -9 -9 -9 -8 -8 -8 -8 -8 -8 -8 -8 -8 -8
3 2 2 1 1 1 0 -0 -1 -2 -2 -3 -4 -5 -6 -6 -7 -8 -8 -9 -9 -9 -8 -8 -8 -8 -8 -8 -9 -9 -9 -9 -9 -8 -9 -8 -8 -8 -8 -8 -8 -8 -8
2 1 1 0 0 -0 -1 -1 -2 -2 -3 -4 -5 -6 -7 -7 -8 -9 -9 -9 -9 -8 -8 -8 -9 -9 -9 -9 -9 -9 -9 -9 -9 -9 -9 -9 -8 -8 -8 -8 -7 -7 -7
1 1 0 -0 -0 -1 -1 -2 -2 -3 -4 -5 -6 -7 -8 -8 -9 -9 -9 -9 -9 -9 -9 -9 -10 -10 -10 -10 -10 -10 -10 -10 -10 -9 -9 -9 -9 -8 -8 -7 -6 -6 -5
0 -0 -0 -1 -1 -1 -2 -2 -3 -4 -6 -6 -7 -8 -8 -9 -9 -9 -9 -9 -9 -9 -9 -10 -10 -10 -9 -9 -9 -10 -10 -10 -10 -9 -9 -10 -9 -9 -9 -7 -6 -5 -5
-0 -1 -1 -1 -2 -2 -2 -3 -4 -6 -7 -8 -8 -8 -9 -9 -9 -9 -9 -9 -10 -10 -10 -10 -10 -9 -9 -9 -9 -10 -10 -11 -11 -11 -9 -10 -10 -10 -10 -8 -6 -5 -5
Wind_Speed
6 6 5 4 4 4 4 4 3 4 4 4 4 3 3 2 1 2 6 12 12 12 12 12 13 13 13 13 12 12 12 13 14 14 15 15 15 15 15 16 16 16 16
7 6 6 5 5 5 5 4 4 3 3 3 3 3 2 1 1 2 4 8 13 13 13 13 14 14 14 13 13 13 13 14 15 15 16 16 17 17 17 17 18 18 18
10 8 6 6 6 6 6 5 4 3 3 2 2 2 2 1 2 3 3 4 6 10 12 12 13 14 14 14 14 15 15 16 16 17 17 18 18 18 18 19 19 20 20
12 10 7 6 7 6 5 4 3 3 3 4 4 3 2 2 4 3 3 3 3 4 6 9 11 12 13 14 14 15 16 17 18 18 19 19 19 19 19 20 21 21 22
13 11 8 8 8 6 5 4 4 3 4 5 5 4 3 3 4 4 3 2 2 2 4 5 8 10 12 14 15 17 18 18 19 20 20 20 20 20 21 21 22 23 23
14 13 9 9 8 6 5 5 5 4 4 5 5 4 1 1 4 4 3 2 2 2 5 8 10 11 12 14 16 17 17 19 20 21 21 22 22 22 23 23 24 25 25
14 12 9 8 6 6 6 5 4 4 5 5 4 3 1 2 3 4 3 4 4 5 7 10 12 13 12 15 15 15 18 19 20 22 22 23 24 24 25 25 26 27 27
14 11 10 8 7 7 7 6 4 3 3 5 4 4 3 2 2 3 4 4 5 6 8 11 13 13 14 13 13 16 17 19 22 23 24 25 25 26 27 28 29 29 30
13 11 11 9 8 7 6 6 4 3 2 3 4 4 3 3 5 5 5 6 6 7 9 11 13 15 14 12 13 14 17 21 22 24 26 27 28 29 30 31 32 32 32
12 12 11 10 8 7 7 6 4 3 2 2 1 2 3 4 4 6 5 6 8 9 11 10 12 15 13 12 13 17 18 20 24 26 28 29 30 31 32 33 33 33 33
11 11 11 10 9 7 7 6 4 3 1 1 2 3 3 4 6 5 8 9 9 9 9 11 11 12 12 13 14 15 18 23 27 29 29 30 31 32 33 34 34 35 35
9 10 11 10 9 7 7 5 4 3 1 1 2 3 4 5 5 6 9 12 13 11 13 11 10 10 11 14 16 18 22 27 29 29 30 31 32 33 34 35 35 35 36
10 11 9 9 8 7 6 5 3 2 1 2 4 4 5 6 6 8 10 12 15 14 11 8 8 10 12 14 15 20 25 29 29 30 32 34 34 35 35 35 35 35 35
10 11 10 9 9 8 6 4 2 1 2 3 4 5 5 6 6 7 9 11 14 12 11 13 12 10 10 14 18 24 24 27 29 31 33 35 36 36 36 35 35 35 35
11 12 10 9 8 6 4 3 1 1 2 4 5 6 6 6 7 7 8 9 10 14 17 14 9 10 13 17 20 22 23 27 30 33 34 35 35 35 36 36 36 36 35
12 12 10 9 7 5 3 2 1 1 4 4 5 7 7 7 7 8 9 10 11 14 17 12 15 16 16 17 22 24 24 29 30 31 32 34 35 35 36 36 36 36 36
12 11 9 8 6 4 2 1 1 3 4 5 6 7 8 9 9 9 9 10 11 13 18 18 16 17 20 20 19 21 22 23 23 29 32 33 35 35 35 35 35 35 35
11 10 8 7 5 3 1 1 2 4 5 7 7 8 9 8 11 10 10 12 12 14 17 21 19 17 20 20 20 20 18 20 21 27 31 33 34 34 35 35 35 35 35
11 9 7 6 4 2 0 2 4 5 7 8 8 9 10 11 12 11 12 13 13 13 15 18 20 18 18 17 20 20 21 18 19 23 28 29 31 33 34 34 34 34 34
10 8 6 5 3 1 1 3 5 7 8 9 9 9 10 11 13 14 13 14 14 16 17 17 18 18 18 19 18 18 18 17 17 18 22 24 27 30 31 32 33 33 33
9 7 5 4 2 0 2 5 7 8 9 10 10 10 11 13 16 15 14 15 16 16 16 16 17 18 18 18 18 17 18 19 20 17 19 18 18 18 21 25 27 29 30
8 6 4 2 0 1 4 8 9 9 9 10 11 12 12 14 15 19 21 21 21 19 19 18 17 19 21 21 19 18 19 20 20 16 17 20 19 19 18 18 25 31 32
6 5 3 1 1 2 6 9 10 11 10 10 12 12 11 12 17 15 18 22 22 24 23 20 21 21 21 20 21 22 21 21 21 19 19 21 19 20 18 19 29 31 32
5 3 1 1 3 3 7 10 12 11 10 11 12 13 14 15 15 17 19 19 19 18 20 17 18 20 20 21 21 21 21 21 21 17 17 19 20 19 18 18 27 30 30
4 2 0 2 4 5 6 10 12 10 9 12 12 13 15 15 19 22 20 19 20 18 18 20 23 24 27 28 22 16 16 16 18 18 15 13 16 18 19 18 18 23 25
2 1 1 2 4 6 7 10 13 9 10 11 12 13 16 17 21 24 19 19 19 18 17 19 19 20 19 19 21 15 13 14 16 12 10 9 14 13 11 11 12 15 18
Wind_Direction
171 159 142 126 116 113 116 101 84 70 53 41 31 14 10 13 65 106 87 60 61 61 51 41 31 22 13 6 0 356 351 347 343 339 334 330 327 324 320 317 314 310 306
164 150 139 129 119 110 99 94 82 69 51 35 23 14 1 355 144 137 116 85 65 59 51 40 29 17 6 356 348 342 338 334 330 326 322 318 316 314 312 309 306 303 300
160 149 142 131 122 116 110 98 85 63 46 21 4 1 341 290 196 156 130 105 84 65 52 38 24 11 359 348 339 332 328 324 321 317 314 310 307 305 304 303 301 298 295
153 143 136 125 123 119 113 101 83 58 29 357 340 338 307 246 210 174 151 118 80 59 52 32 12 2 351 340 331 325 321 317 313 310 307 304 301 299 297 297 296 295 292
147 137 128 126 128 123 115 102 72 41 19 358 337 326 316 246 198 193 179 144 92 25 355 358 346 344 339 332 325 320 316 313 309 307 303 300 297 295 294 293 292 290 288
139 129 125 131 133 127 119 107 88 59 25 349 327 327 344 210 203 199 208 214 230 302 324 334 333 332 327 323 321 319 316 313 310 306 302 299 295 294 293 291 289 288 286
134 129 129 134 136 124 117 109 96 67 34 357 334 328 212 184 206 204 243 263 259 286 304 325 330 326 320 319 317 317 317 315 312 308 304 300 296 294 291 290 288 287 285
131 132 135 136 130 122 113 101 93 80 49 19 356 334 322 238 185 228 276 268 281 289 306 319 321 317 314 312 310 312 313 314 312 308 304 300 297 294 291 289 288 286 284
128 133 133 131 128 123 113 103 92 77 60 42 18 356 328 309 310 279 274 284 291 298 307 312 309 310 308 304 306 309 312 312 310 307 305 303 299 295 292 289 287 285 283
127 130 130 127 124 119 117 110 98 86 45 23 23 354 316 305 293 300 278 272 283 292 295 298 303 303 298 300 301 301 304 308 309 307 304 300 297 294 292 289 287 285 284
126 130 130 127 123 118 117 117 112 98 61 348 324 309 293 279 270 281 295 301 298 293 295 296 295 293 295 300 302 301 306 308 307 304 301 299 297 295 293 291 289 288 286
132 133 131 128 125 123 124 124 122 124 120 289 291 288 295 293 294 286 290 299 303 303 301 293 288 289 296 303 302 305 307 307 305 303 301 299 298 296 295 294 292 290 288
143 142 137 134 128 127 129 132 137 150 208 269 281 287 284 281 287 284 287 295 298 300 294 285 278 285 293 297 300 306 304 302 301 300 300 299 299 298 297 295 293 290 288
141 140 136 133 132 134 136 141 154 187 252 272 279 283 284 281 281 281 288 298 301 297 292 294 301 296 295 294 294 298 296 295 295 296 297 297 297 297 296 294 291 290 288
136 137 136 135 135 137 139 154 186 239 269 279 286 285 284 286 284 284 284 285 291 298 301 302 297 299 299 298 296 294 294 294 294 294 294 294 294 294 293 292 290 289 287
135 137 137 138 139 140 145 162 229 273 283 290 294 293 294 292 291 288 285 284 282 285 290 293 299 300 303 297 295 294 294 294 292 292 292 293 293 292 292 291 289 288 286
135 137 138 141 141 142 146 192 268 282 292 297 295 295 297 299 296 294 291 286 284 284 288 294 298 302 301 299 299 298 296 295 294 294 294 294 293 293 291 290 289 287 285
132 134 137 138 135 135 152 265 288 292 297 299 300 299 299 301 298 296 293 290 288 288 289 295 299 301 300 301 300 300 300 297 295 295 295 294 293 292 290 289 287 286 284
129 132 135 133 130 131 201 292 296 296 295 295 297 297 299 301 299 298 297 293 291 290 289 292 297 301 300 301 303 302 300 298 297 296 295 294 292 290 289 288 287 286 285
130 130 128 123 120 132 280 295 297 295 294 293 292 291 293 296 298 299 297 294 294 295 295 294 295 299 302 304 305 305 305 303 301 300 295 293 292 292 290 288 287 285 283
124 126 126 121 113 308 312 312 305 298 296 295 292 290 290 293 294 296 296 297 300 298 296 295 297 300 303 307 307 308 305 305 301 301 299 298 298 294 292 289 285 283 282
126 127 123 117 82 325 321 310 311 303 297 295 296 297 297 295 297 299 299 299 296 294 295 296 298 299 301 303 306 305 304 304 303 306 303 300 299 294 292 289 287 287 286
131 129 124 119 309 325 316 315 313 305 298 297 298 299 301 301 304 302 300 298 295 292 291 294 296 296 299 302 303 302 302 300 298 300 301 296 298 296 295 291 292 290 288
131 130 130 314 307 316 319 317 315 305 298 295 298 301 302 303 305 307 305 302 299 297 296 295 292 292 293 295 297 298 297 296 293 293 293 293 297 297 298 296 293 290 287
131 133 189 300 307 315 322 318 320 309 299 301 302 300 301 301 304 308 308 306 304 302 301 298 293 290 292 294 295 295 295 296 297 300 300 290 295 303 299 293 290 291 291
128 151 266 298 306 314 318 320 321 310 308 308 305 303 302 305 309 311 312 309 306 307 308 304 300 297 296 294 294 290 291 292 295 299 297 298 299 309 305 291 294 298 297
Height
1523 1524 1525 1526 1526 1526 1526 1525 1524 1523 1522 1520 1519 1517 1516 1514 1513 1511 1510 1509 1508 1506 1505 1504 1503 1501 1500 1499 1497 1496 1495 1494 1493 1492 1491 1491 1490 1489 1489 1488 1488 1488 1487
1521 1523 1524 1524 1524 1524 1524 1523 1522 1521 1520 1518 1516 1514 1512 1511 1510 1508 1507 1506 1505 1504 1503 1501 1500 1499 1497 1496 1494 1492 1490 1489 1488 1487 1486 1485 1484 1483 1483 1482 1482 1481 1481
1519 1521 1522 1522 1523 1523 1522 1522 1520 1519 1517 1515 1513 1511 1509 1508 1507 1505 1504 1503 1502 1501 1500 1499 1497 1496 1494 1492 1490 1488 1486 1484 1482 1481 1480 1479 1478 1476 1476 1475 1474 1474 1473
1516 1518 1520 1520 1521 1521 1521 1520 1519 1517 1515 1513 1511 1508 1506 1504 1503 1502 1502 1501 1500 1499 1497 1496 1494 1492 1490 1487 1485 1483 1481 1479 1477 1475 1473 1472 1471 1469 1468 1467 1466 1466 1465
1514 1516 1517 1518 1519 1519 1519 1518 1517 1516 1514 1511 1509 1506 1504 1502 1500 1499 1499 1498 1497 1496 1494 1492 1490 1488 1485 1483 1480 1477 1475 1473 1471 1469 1467 1465 1464 1462 1461 1459 1458 1457 1457
1510 1513 1514 1516 1517 1517 1517 1516 1515 1513 1511 1509 1507 1504 1501 1499 1498 1497 1497 1495 1494 1492 1491 1489 1486 1483 1480 1478 1475 1472 1469 1467 1464 1462 1460 1458 1457 1455 1453 1452 1450 1449 1448
1507 1510 1512 1513 1514 1515 1515 1514 1513 1511 1509 1507 1505 1502 1500 1497 1496 1495 1494 1493 1491 1489 1487 1485 1482 1479 1476 1472 1469 1466 1463 1461 1458 1455 1453 1451 1449 1447 1445 1444 1442 1441 1440
1504 1507 1509 1511 1512 1513 1512 1512 1511 1509 1506 1504 1503 1501 1501 1500 1496 1494 1492 1491 1489 1486 1484 1481 1478 1474 1470 1466 1463 1460 1457 1454 1451 1448 1446 1444 1442 1439 1438 1436 1434 1432 1431
1501 1504 1507 1508 1510 1510 1510 1509 1508 1507 1505 1502 1501 1502 1501 1498 1495 1491 1489 1487 1484 1481 1478 1475 1472 1468 1464 1460 1456 1453 1449 1446 1443 1440 1438 1435 1433 1431 1429 1427 1425 1423 1422
1498 1502 1504 1506 1507 1507 1507 1507 1505 1504 1503 1501 1499 1498 1497 1495 1493 1488 1484 1481 1478 1474 1471 1467 1464 1461 1457 1453 1449 1445 1441 1437 1434 1431 1429 1426 1424 1422 1420 1418 1416 1414 1412
1496 1499 1502 1503 1504 1505 1504 1504 1502 1501 1500 1499 1497 1495 1493 1490 1488 1486 1480 1476 1473 1469 1465 1461 1457 1453 1450 1446 1442 1438 1433 1429 1426 1422 1420 1417 1415 1412 1410 1407 1405 1403 1401
1493 1496 1499 1500 1501 1501 1501 1500 1499 1498 1497 1495 1494 1492 1490 1488 1486 1482 1476 1471 1466 1463 1459 1454 1450 1447 1443 1439 1435 1430 1426 1421 1417 1414 1411 1408 1405 1402 1399 1396 1394 1391 1389
1490 1494 1496 1498 1498 1498 1498 1497 1496 1495 1493 1492 1490 1488 1485 1483 1480 1477 1472 1466 1461 1456 1452 1448 1444 1441 1437 1433 1428 1423 1417 1413 1409 1405 1401 1398 1395 1392 1388 1385 1382 1380 1378
1488 1491 1494 1495 1495 1495 1494 1494 1492 1491 1490 1488 1486 1483 1481 1478 1475 1472 1468 1463 1455 1449 1448 1445 1441 1436 1430 1426 1421 1415 1410 1406 1402 1397 1393 1389 1385 1381 1378 1374 1371 1369 1366
1486 1489 1491 1492 1492 1492 1491 1490 1489 1488 1486 1484 1481 1479 1476 1473 1469 1466 1462 1458 1454 1444 1437 1436 1434 1430 1426 1420 1415 1409 1404 1399 1394 1389 1384 1380 1375 1371 1367 1364 1360 1357 1355
1484 1487 1489 1489 1489 1489 1488 1487 1485 1484 1482 1479 1477 1474 1471 1467 1464 1460 1456 1453 1449 1443 1433 1428 1427 1423 1418 1413 1408 1403 1397 1391 1385 1380 1376 1371 1366 1361 1357 1352 1349 1346 1343
1482 1484 1486 1486 1486 1485 1484 1483 1482 1480 1478 1475 1472 1468 1465 1462 1458 1454 1451 1447 1443 1438 1428 1420 1420 1415 1410 1406 1400 1396 1390 1383 1377 1372 1366 1360 1355 1350 1345 1341 1337 1334 1331
1479 1481 1483 1483 1483 1482 1481 1479 1478 1475 1473 1470 1467 1463 1460 1456 1452 1448 1444 1440 1437 1432 1425 1415 1410 1407 1403 1398 1393 1387 1382 1376 1369 1363 1356 1350 1345 1339 1334 1330 1326 1322 1319
1477 1479 1480 1480 1479 1478 1477 1475 1473 1471 1468 1465 1461 1458 1454 1450 1446 1443 1439 1435 1430 1426 1420 1412 1404 1400 1395 1391 1385 1380 1374 1368 1361 1354 1347 1341 1335 1329 1324 1319 1314 1310 1306
1475 1476 1477 1477 1476 1475 1473 1471 1469 1466 1463 1460 1456 1452 1448 1445 1441 1437 1433 1429 1425 1420 1415 1408 1400 1394 1389 1384 1380 1372 1365 1359 1353 1346 1338 1332 1326 1319 1313 1307 1302 1297 1293
1473 1474 1474 1474 1473 1471 1469 1467 1464 1461 1458 1454 1451 1447 1443 1439 1434 1431 1427 1423 1419 1414 1409 1403 1396 1389 1383 1378 1373 1366 1359 1351 1344 1339 1330 1323 1317 1310 1302 1296 1290 1285 1281
1470 1471 1471 1471 1469 1468 1465 1462 1459 1456 1452 1449 1445 1441 1437 1433 1429 1425 1421 1417 1413 1409 1403 1398 1391 1385 1378 1373 1367 1360 1353 1345 1334 1332 1324 1313 1309 1300 1293 1287 1280 1275 1270
1468 1469 1468 1467 1466 1463 1461 1458 1454 1451 1447 1443 1439 1435 1431 1427 1423 1418 1414 1410 1406 1402 1398 1393 1386 1379 1373 1368 1361 1354 1347 1340 1331 1324 1318 1305 1299 1291 1284 1277 1271 1265 1260
1466 1466 1465 1464 1462 1459 1456 1453 1449 1445 1441 1438 1434 1430 1425 1421 1417 1413 1408 1403 1399 1395 1391 1385 1379 1372 1367 1361 1356 1350 1341 1332 1323 1318 1314 1302 1291 1283 1275 1267 1261 1255 1250
1464 1463 1462 1460 1458 1455 1452 1448 1444 1440 1436 1433 1429 1425 1421 1416 1412 1408 1403 1396 1391 1386 1382 1377 1371 1365 1360 1354 1349 1342 1335 1328 1317 1309 1305 1297 1286 1276 1265 1257 1252 1247 1242
1461 1460 1458 1456 1453 1451 1447 1444 1439 1435 1432 1428 1424 1420 1416 1411 1407 1402 1397 1391 1384 1379 1374 1368 1363 1358 1352 1347 1342 1337 1330 1322 1313 1303 1296 1291 1282 1274 1259 1248 1245 1240 1234